空港情報

日本の空港の気象及び、管制情報です。
気象情報はより詳細な情報が取得できる「AVIATION WEATER CENTER」 から取得しているため、VATSIMの気象情報と若干のタイムラグが生じることがあります。

VRCのフィールド設定用空港一覧はこちらをご覧ください。

RJCG Sapporo Control

RJCW / Wakkanai

NO RADAR

RADIO

08/26 2200x45

民間 civil

過去5時間に発表されたMETARがありません。

RJER / Rishiri

NO RADAR

REMOTE

25/07 1800x45

民間 civil

過去5時間に発表されたMETARがありません。

RJEB / Monbetsu

NO RADAR

REMOTE

32/14 2000x45

民間 civil

過去5時間に発表されたMETARがありません。

RJCM / Memanbetsu

NO RADAR

TOWER

36/18 2500x45

民間 civil

過去5時間に発表されたMETARがありません。

RJEC / Asahikawa

NO RADAR

TOWER

34/16 2500x60

民間 civil

過去5時間に発表されたMETARがありません。

RJCN / Nakashibetsu

NO RADAR

RADIO

08/26 2000x45

民間 civil

過去5時間に発表されたMETARがありません。

RJCK / Kushiro

NO RADAR

TOWER

17/35 2500x45

民間 civil

過去5時間に発表されたMETARがありません。

RJCO / Sapporo

RJCO_APP

TOWER

14/32 1500x30

共用 dual

過去5時間に発表されたMETARがありません。

RJCJ / Chitose

RJCC_APP

TOWER

36R/18L 3000x60
36L/18R 2700x45

自衛隊 military

過去5時間に発表されたMETARがありません。

RJCC / NewChitose
VMC

RJCC_APP

TOWER

01L/19R 3000x60
01R/19L 3000x60

民間 civil

9999

170@3KT

30.12

RJCC 231800Z 17003KT 9999 FEW030 BKN050 01/01 Q1020 RMK 1CU030 6SC050 A3013

RJCB / Obihiro

NO RADAR

TOWER

35/17 2500x45

民間 civil

過去5時間に発表されたMETARがありません。

RJEO / Okushiri

NO RADAR

REMOTE

12/30 1500x45

民間 civil

過去5時間に発表されたMETARがありません。

RJCH / Hakodate

RJCH_APP

TOWER

12/30 3000x45

民間 civil

過去5時間に発表されたMETARがありません。

RJSA / Aomori

NO RADAR

TOWER

24/06 3000x60

民間 civil

過去5時間に発表されたMETARがありません。

RJSO / Ominato

RJSM_APP

TOWER

04/22 600x45

自衛隊 military

過去5時間に発表されたMETARがありません。

RJSM / Misawa
VMC

RJSM_APP

TOWER

10/28 3050x45

共用 dual

9999

240@8KT

30.18

RJSM 231800Z 24008KT 9999 FEW030 SCT070 09/04 Q1022

RJSH / Hachinohe

RJSM_APP

TOWER

25/07 2250x45

自衛隊 military

過去5時間に発表されたMETARがありません。

RJSK / Akita

NO RADAR

TOWER

10/28 2500x60

民間 civil

過去5時間に発表されたMETARがありません。

RJSI / Hanamaki

NO RADAR

RADIO

20/02 2500x45

民間 civil

過去5時間に発表されたMETARがありません。

RJSR / Odate-Noshiro

NO RADAR

REMOTE

11/29 2000x45

民間 civil

過去5時間に発表されたMETARがありません。

RJTG Tokyo Control

RJSY / Shonai

NO RADAR

RADIO

09/27 2000x45

民間 civil

過去5時間に発表されたMETARがありません。

RJSC / Yamagata

NO RADAR

RADIO

01/19 2000x45

民間 civil

過去5時間に発表されたMETARがありません。

RJST / Matsushima

RJSS_APP

TOWER

07/25 2071x46
15/33 1500x46

自衛隊 military

過去5時間に発表されたMETARがありません。

RJSS / Sendai

RJSS_APP

TOWER

27/09 3000x45
12/30 1200x45

民間 civil

過去5時間に発表されたMETARがありません。

RJSD / Sado

NO RADAR

REMOTE

10/28 890x25

民間 civil

過去5時間に発表されたMETARがありません。

RJSN / Niigata

RJSN_APP

TOWER

10/28 2500x45
04/22 1314x45

民間 civil

過去5時間に発表されたMETARがありません。

RJSF / Fukushima

NO RADAR

RADIO

01/19 2500x60

民間 civil

過去5時間に発表されたMETARがありません。

RJAH / Ibaraki/Hyakuri
VMC

RJAH_APP

TOWER

03L/21R 2700x45
03R/21L 2700x45

共用 dual

9999

060@2KT

30.27

RJAH 231800Z 06002KT 9999 FEW030 04/03 Q1025

RJTT / Tokyo
VMC

RJTT_APP

TOWER

34LR/16RL 3000x60
04/22&05/23 2500x60

民間 civil

9999

040@8KT

30.27

RJTT 231800Z 04008KT 9999 FEW030 12/06 Q1025 NOSIG RMK 1CU030 A3029

RJAA / Narita
VMC

RJTT_APP

TOWER

34L/16R 4000x60
34R/16L 2500x60

民間 civil

9999

000@2KT

30.27

RJAA 231800Z VRB02KT 9999 FEW030 04/04 Q1025 NOSIG RMK 1CU030 A3028

RJTL / Shimofusa

RJTT_APP

TOWER

19/01 2250x45

自衛隊 military

過去5時間に発表されたMETARがありません。

RJTE / Tateyama

RJTT_APP

TOWER

09/27 300x45

自衛隊 military

過去5時間に発表されたMETARがありません。

RJTO / Oshima

NO RADAR

RADIO

03/21 1800x45

民間 civil

過去5時間に発表されたMETARがありません。

RJTK / Kisarazu

NO RADAR

TOWER

02/20 1830x45

自衛隊 military

過去5時間に発表されたMETARがありません。

RJAN / Niijima

NO RADAR

REMOTE

11/29 800x25

自衛隊 military

過去5時間に発表されたMETARがありません。

RJAZ / Kozushima

NO RADAR

REMOTE

11/29 800x25

民間 civil

過去5時間に発表されたMETARがありません。

RJTH / Hachijojima

NO RADAR

RADIO

26/08 2000x45

民間 civil

過去5時間に発表されたMETARがありません。

RJTF / Chofu

NO RADAR

Flight Service

35/17 800x30

民間 civil

過去5時間に発表されたMETARがありません。

RJTQ / Miyake

NO RADAR

REMOTE

02/20 1200x30

民間 civil

過去5時間に発表されたMETARがありません。

RJTC / Tachikawa

NO RADAR

TOWER

01/19 900x45

自衛隊 military

過去5時間に発表されたMETARがありません。

RJTA / Atsugi

NO RADAR

TOWER

01/19 2438x45

自衛隊 military

過去5時間に発表されたMETARがありません。

RJTU / Utsunomiya

RJTY_APP

TOWER

01/19 1700x45

自衛隊 military

過去5時間に発表されたMETARがありません。

RJTJ / Iruma

RJTY_APP

TOWER

17/35 2000x45

自衛隊 military

過去5時間に発表されたMETARがありません。

RJTY / Yokota
VMC

RJTY_APP

TOWER

18/36 3353x60

自衛隊 military

9999

280@3KT

30.32

RJTY 231756Z AUTO 28003KT 10SM CLR 07/02 A3032 RMK AO2 SLP272 T00720023 10118 20062 51006 FZRANO $

RJAF / Matsumoto

NO RADAR

RADIO

18/36 2000x45

民間 civil

過去5時間に発表されたMETARがありません。

RJNS / Shizuoka

NO RADAR

RADIO

30/12 2500x60

民間 civil

過去5時間に発表されたMETARがありません。

RJNY / Yaizu-Shizuhama
VMC

NO RADAR

TOWER

27/09 1500x45

自衛隊 military

9999

360@2KT

30.24

RJNY 231723Z 36002KT 9999 FEW025 BKN050 12/09 Q1024 RMK 1CU025 5SC050 A3025

RJNH / Hamamatsu

RJNH_APP

TOWER

09/27 2550x60

自衛隊 military

過去5時間に発表されたMETARがありません。

RJGG / Chubu
VMC

RJGG_APP

TOWER

36/18 3500x60

民間 civil

9999

360@9KT

30.27

RJGG 231800Z 36009KT 9999 FEW030 12/04 Q1025 NOSIG

RJNA / Nagoya

RJGG_APP

TOWER

34/16 2740x45

民間 civil

過去5時間に発表されたMETARがありません。

RJNG / Gifu

RJGG_APP

TOWER

28/10 2710x46

自衛隊 military

過去5時間に発表されたMETARがありません。

RJOE / Akeno

RJOE_APP

TOWER

13/31 500x30
04/22 500x30

自衛隊 military

過去5時間に発表されたMETARがありません。

RJNK / Komatsu
VMC

RJNK_APP

TOWER

06/24 2700x45

共用 dual

9999

150@3KT

30.30

RJNK 231800Z 15003KT 9999 FEW030 SCT050 09/06 Q1026

RJNW / Noto

NO RADAR

RADIO

25/07 2000x45

民間 civil

過去5時間に発表されたMETARがありません。

RJNT / Toyama

NO RADAR

TOWER

20/02 2000x45

民間 civil

過去5時間に発表されたMETARがありません。

RJNF / Fukui

NO RADAR

REMOTE

18/36 1200x30

民間 civil

過去5時間に発表されたMETARがありません。

RJBD / Nanki-Shirahama

NO RADAR

RADIO

15/33 2000x45

民間 civil

過去5時間に発表されたMETARがありません。

RJOY / Yao

RJBB_APP

TOWER

27/09 1490x45
13/31 1200x30

民間 civil

過去5時間に発表されたMETARがありません。

RJOO / Osaka

RJBB_APP

TOWER

32L/14R 3000x60
32R/14L 1830x45

民間 civil

過去5時間に発表されたMETARがありません。

RJOB / Okayama

RJBB_APP

TOWER

07/25 3000x45

民間 civil

過去5時間に発表されたMETARがありません。

RJBB / Kansai
VMC

RJBB_APP

TOWER

06R/24L 3500x60
06L/24R 4000x60

民間 civil

9999

090@5KT

30.32

RJBB 231800Z AUTO 09005KT 9999 NCD 12/05 Q1027 NOSIG

RJBE / Kobe

RJBB_APP

TOWER

09/27 2500x60

民間 civil

過去5時間に発表されたMETARがありません。

RJBT / Tajima

NO RADAR

REMOTE

01/19 1200x30

民間 civil

過去5時間に発表されたMETARがありません。

RJOR / Tottori

NO RADAR

RADIO

10/28 2000x45

民間 civil

過去5時間に発表されたMETARがありません。

RJNO / Oki

NO RADAR

REMOTE

07/25 2000x45

民間 civil

過去5時間に発表されたMETARがありません。

RJOH / Miho
VMC

RJOH_APP

TOWER

25/07 2500x45

共用 dual

9999

180@5KT

30.32

RJOH 231800Z 18005KT 9999 FEW030 BKN060 10/09 Q1027

RJOC / Izumo

RJOH_APP

RADIO

07/25 2000x45

共用 dual

過去5時間に発表されたMETARがありません。

RJDG Fukuoka Control

RJOT / Takamatsu

RJBB_APP

TOWER

26/08 2500x60

民間 civil

過去5時間に発表されたMETARがありません。

RJOK / Kochi

RJBB_APP

TOWER

32/14 2500x45

民間 civil

過去5時間に発表されたMETARがありません。

RJOS / Tokushima
VMC

RJOS_APP

TOWER

29/11 2500x45

共用 dual

9999

300@7KT

30.32

RJOS 231800Z 30007KT 9999 FEW030 SCT040 11/07 Q1027

RJOA / Hiroshima

RJOA_APP

TOWER

10/28 3000x60

民間 civil

過去5時間に発表されたMETARがありません。

RJBH / Hiroshimanishi

NO RADAR

Flight Service

04/22 1800x45

民間 civil

過去5時間に発表されたMETARがありません。

RJOI / Iwakuni
VMC

RJOI_APP

TOWER

02/20 2440x60

共用 dual

9999

310@7KT

30.34

RJOI 231756Z 31007KT 10SM FEW070 11/04 A3034 RMK AO2 SLP272 T01110044 10161 20111 51003 $

RJOM / Matsuyama

RJOI_APP

TOWER

14/32 2500x45

民間 civil

過去5時間に発表されたMETARがありません。

RJOZ / Ozuki

RJFZ_APP

TOWER

35/17 1201x61
12/30 899x46

自衛隊 military

過去5時間に発表されたMETARがありません。

RJOF / Hofu

RJFZ_APP

TOWER

30/12 1180x60
01/19 1480x45

自衛隊 military

過去5時間に発表されたMETARがありません。

RJDC / Yamaguchi-Ube

RJFZ_APP

RADIO

07/25 2500x45

民間 civil

過去5時間に発表されたMETARがありません。

RJFR / Kitakyushu
VMC

RJFZ_APP

TOWER

18/36 2500x60

民間 civil

9999

070@11KT

30.30

RJFR 231800Z 07011KT 9999 FEW030 BKN/// 16/08 Q1026

RJFZ / Tsuiki

RJFZ_APP

TOWER

25/07 2399x46

自衛隊 military

過去5時間に発表されたMETARがありません。

RJOW / Iwami

NO RADAR

REMOTE

11/29 2000x45

民間 civil

過去5時間に発表されたMETARがありません。

RJDT / Tsushima

NO RADAR

REMOTE

32/14 1900x45

民間 civil

過去5時間に発表されたMETARがありません。

RJFF / Fukuoka
VMC

RJFF_APP

TOWER

16/34 2800x60

民間 civil

9999

140@6KT

30.30

RJFF 231800Z AUTO 14006KT 9999 NCD 10/07 Q1026 NOSIG RMK A3031

RJFS / Saga
VMC

RJFF_APP

RADIO

29/11 2000x45

民間 civil

9999

350@5KT

30.30

RJFS 231400Z 35005KT 9999 FEW040 09/06 Q1026

RJFA / Ashiya

RJFF_APP

TOWER

12/30 1640x46

自衛隊 military

過去5時間に発表されたMETARがありません。

RJDB / Iki
VMC

RJFF_APP

REMOTE

20/02 1200x30

民間 civil

9999

090@11KT

30.27

RJDB 231800Z AUTO 09011KT 050V120 9999 NSC 17/09 Q1025

RJFO / Oita

RJFO_APP

TOWER

01/19 3000x45

民間 civil

過去5時間に発表されたMETARがありません。

RJFU / Nagasaki

RJFU_APP

TOWER

32/14 3000x60

民間 civil

過去5時間に発表されたMETARがありません。

RJDU / Omura

RJFU_APP

TOWER

18/36 1200x30

自衛隊 military

過去5時間に発表されたMETARがありません。

RJFE / Fukue

NO RADAR

RADIO

03/21 2000x45

民間 civil

過去5時間に発表されたMETARがありません。

RJDO / Ojika

NO RADAR

REMOTE

03/21 800x30

民間 civil

過去5時間に発表されたMETARがありません。

RJDK / Kamigoto

NO RADAR

REMOTE

17/35 800x30

民間 civil

過去5時間に発表されたMETARがありません。

RJDA / Amakusa

NO RADAR

Flight Service

31/13 1000x30

民間 civil

過去5時間に発表されたMETARがありません。

RJFT / Kumamoto

RJFT_APP

TOWER

07/25 3000x45

民間 civil

過去5時間に発表されたMETARがありません。

RJFN / Nyutabaru

RJFM_APP

TOWER

28/10 2701x46

自衛隊 military

過去5時間に発表されたMETARがありません。

RJFM / Miyazaki

RJFM_APP

TOWER

27/09 2500x45

民間 civil

過去5時間に発表されたMETARがありません。

RJFK / Kagoshima

RJFK_APP

TOWER

34/16 3000x45

民間 civil

過去5時間に発表されたMETARがありません。

RJFY / Kanoya

RJFY_APP

TOWER

26L/08R 2250x45
26R/08L 1200x40

自衛隊 military

過去5時間に発表されたMETARがありません。

RJFG / Tanegashima

NO RADAR

RADIO

31/13 2000x45

民間 civil

過去5時間に発表されたMETARがありません。

RJFC / Yakushima

NO RADAR

REMOTE

14/32 1500x45

民間 civil

過去5時間に発表されたMETARがありません。

RJBG Kobe Control

ROAH / Naha
VMC

ROAH_APP

TOWER

36/18 3000x45

共用 dual

9999

030@7KT

30.09

ROAH 231800Z 03007KT 9999 FEW040 BKN110 23/16 Q1019 RMK 1SC040 7AC110 A3009

RORA / Aguni

ROAH_APP

REMOTE

01/19 800x25

民間 civil

過去5時間に発表されたMETARがありません。

ROKJ / Kumejima

ROAH_APP

REMOTE

03/21 2000x45

民間 civil

過去5時間に発表されたMETARがありません。

RODN / Kadena
VMC

ROAH_APP

TOWER

05L/23R 3688x91
05R/23L 3688x61

自衛隊 military

9999

050@4KT

30.08

RODN 231756Z AUTO 05004KT 10SM OVC120 20/16 A3008 RMK AO2 SLP192 T01950159 10217 20191 57012 $

ROTM / Futenma
VMC

ROAH_APP

TOWER

06/24 2740x45

自衛隊 military

9999

040@4KT

30.13

ROTM 231556Z 04004KT 9999 SCT045 BKN110 22/16 A3013 RMK SLP190 T02110161

RORS / Shimojishima

RORS_APP

TOWER

17/35 3000x60

民間 civil

過去5時間に発表されたMETARがありません。

ROMY / Miyako

RORS_APP

TOWER

04/22 2000x45

民間 civil

過去5時間に発表されたMETARがありません。

ROIG / New Ishigaki

RORS_APP

TOWER

22/04 2000x45

民間 civil

過去5時間に発表されたMETARがありません。

RORT / Tarama

RORS_APP

REMOTE

36/18 1500x45

民間 civil

過去5時間に発表されたMETARがありません。

RJKA / Amami

NO RADAR

RADIO

03/21 2000x45

民間 civil

過去5時間に発表されたMETARがありません。

RJKI / Kikai
VMC

NO RADAR

REMOTE

07/25 1200x30

民間 civil

9999

080@5KT

30.09

RJKI 231800Z AUTO 08005KT 050V110 9999 FEW040 SCT070 BKN080 //////TCU 22/17 Q1019

RJKN / Tokunoshima

NO RADAR

REMOTE

19/01 2000x45

民間 civil

過去5時間に発表されたMETARがありません。

RJKB / Okierabu

NO RADAR

REMOTE

04/22 1350x45

民間 civil

過去5時間に発表されたMETARがありません。

RORY / Yoron
VMC

NO RADAR

REMOTE

32/14 1320x30

民間 civil

9999

010@6KT

30.09

RORY 231800Z AUTO 01006KT 9999 OVC060 //////TCU 23/17 Q1019

RORK / Kitadaito
VMC

NO RADAR

REMOTE

03/21 1500x45

民間 civil

9999

060@7KT

30.06

RORK 231800Z AUTO 06007KT 9999 FEW036 OVC160 23/17 Q1018

ROMD / Minami-daito
VMC

NO RADAR

REMOTE

02/20 1500x45

民間 civil

9999

040@5KT

30.06

ROMD 231800Z AUTO 04005KT 9999 NCD 22/16 Q1018

ROYN / Yonaguni
VMC

NO RADAR

REMOTE

26/08 2000x45

民間 civil

9999

050@13KT

30.06

ROYN 231800Z AUTO 05013KT 9999 FEW036 OVC041 24/19 Q1018

RORH / Hateruma

NO RADAR

REMOTE

02/20 800x25

民間 civil

過去5時間に発表されたMETARがありません。

ROKR / Kerama

NO RADAR

REMOTE

02/20 800x25

民間 civil

過去5時間に発表されたMETARがありません。